| time (UTC) | temp F | wind direction | speed MPH | gust MPH | rain 1hr in | rain 24hr in | rain mn in | humidity % | barometer mb |
| 20260503172543 | 68 | 105 | 5.0 | 10.0 | 0.00 | 0.00 | 0.00 | 37 | 1015.1 |
| 20260503172043 | 68 | 110 | 3.0 | 8.0 | 0.00 | 0.00 | 0.00 | 37 | 1015.1 |
| 20260503171543 | 68 | 111 | 4.0 | 7.0 | 0.00 | 0.00 | 0.00 | 39 | 1015.1 |
| 20260503171044 | 68 | 114 | 3.0 | 7.0 | 0.00 | 0.00 | 0.00 | 40 | 1015.4 |
| 20260503170543 | 67 | 127 | 1.0 | 6.0 | 0.00 | 0.00 | 0.00 | 40 | 1015.3 |
| 20260503150544 | 60 | 117 | 2.0 | 7.0 | 0.00 | 0.00 | 0.00 | 46 | 1016.9 |
| 20260503131043 | 55 | 314 | 1.0 | 4.0 | 0.00 | 0.00 | 0.00 | 49 | 1016.9 |
| 20260503130543 | 55 | 323 | 2.0 | 3.0 | 0.00 | 0.00 | 0.00 | 50 | 1016.8 |
| 20260503110543 | 56 | 321 | 1.0 | 2.0 | 0.00 | 0.00 | 0.00 | 43 | 1016.8 |
| 20260503081624 | 60 | 325 | 2.0 | 3.0 | 0.00 | 0.00 | 0.00 | 41 | 1016.9 |
| 20260503081103 | 60 | 335 | 2.0 | 3.0 | 0.00 | 0.00 | 0.00 | 42 | 1016.8 |
| 20260503080544 | 60 | 308 | 1.0 | 4.0 | 0.00 | 0.00 | 0.00 | 41 | 1016.9 |
| 20260503080103 | 60 | 332 | 1.0 | 4.0 | 0.00 | 0.00 | 0.00 | 41 | 1017.1 |
| 20260503072543 | 61 | 4 | 1.0 | 6.0 | 0.00 | 0.00 | 0.00 | 40 | 1016.9 |
| 20260503072043 | 61 | 56 | 2.0 | 4.0 | 0.00 | 0.00 | 0.00 | 40 | 1016.8 |
| 20260503071543 | 61 | 74 | 3.0 | 4.0 | 0.00 | 0.00 | 0.00 | 40 | 1017.1 |
| 20260503071043 | 61 | 34 | 1.0 | 4.0 | 0.00 | 0.00 | 0.00 | 40 | 1017.0 |
| 20260503070543 | 61 | 57 | 3.0 | 4.0 | 0.00 | 0.00 | 0.00 | 39 | 1017.1 |
| 20260503055103 | 63 | 76 | 2.0 | 4.0 | 0.00 | 0.00 | 0.00 | 38 | 1016.5 |
| 20260503054543 | 63 | 53 | 2.0 | 4.0 | 0.00 | 0.00 | 0.00 | 38 | 1016.5 |
| 20260503054043 | 64 | 328 | 2.0 | 3.0 | 0.00 | 0.00 | 0.00 | 38 | 1016.4 |
| 20260503053543 | 64 | 319 | 2.0 | 4.0 | 0.00 | 0.00 | 0.00 | 38 | 1016.4 |
| 20260503053042 | 64 | 342 | 1.0 | 4.0 | 0.00 | 0.00 | 0.00 | 38 | 1016.5 |
| 20260503052543 | 64 | 314 | 1.0 | 3.0 | 0.00 | 0.00 | 0.00 | 38 | 1016.3 |
| 20260503052103 | 64 | 340 | 1.0 | 3.0 | 0.00 | 0.00 | 0.00 | 37 | 1016.3 |
| 20260503051603 | 64 | 326 | 2.0 | 3.0 | 0.00 | 0.00 | 0.00 | 38 | 1016.4 |
| 20260503051043 | 64 | 0 | 1.0 | 3.0 | 0.00 | 0.00 | 0.00 | 38 | 1016.2 |
| 20260503050543 | 64 | 28 | 1.0 | 6.0 | 0.00 | 0.00 | 0.00 | 38 | 1016.3 |
| 20260503050042 | 65 | 295 | 2.0 | 6.0 | 0.00 | 0.00 | 0.00 | 36 | 1016.2 |
| 20260503045543 | 64 | 347 | 1.0 | 3.0 | 0.00 | 0.00 | 0.00 | 37 | 1016.0 |
| 20260503045103 | 65 | 64 | 2.0 | 4.0 | 0.00 | 0.00 | 0.00 | 36 | 1016.0 |
| 20260503044542 | 65 | 72 | 2.0 | 5.0 | 0.00 | 0.00 | 0.00 | 36 | 1015.9 |
| 20260503044043 | 66 | 48 | 2.0 | 5.0 | 0.00 | 0.00 | 0.00 | 34 | 1015.9 |
| 20260503043603 | 67 | 59 | 1.0 | 3.0 | 0.00 | 0.00 | 0.00 | 34 | 1015.7 |
| 20260503043042 | 67 | 270 | 1.0 | 7.0 | 0.00 | 0.00 | 0.00 | 33 | 1015.7 |
| 20260503042542 | 67 | 29 | 1.0 | 8.0 | 0.00 | 0.00 | 0.00 | 33 | 1015.6 |
| 20260503042103 | 68 | 65 | 4.0 | 9.0 | 0.00 | 0.00 | 0.00 | 33 | 1015.4 |
| 20260503041543 | 67 | 68 | 4.0 | 9.0 | 0.00 | 0.00 | 0.00 | 33 | 1015.6 |
| 20260503041043 | 67 | 30 | 2.0 | 4.0 | 0.00 | 0.00 | 0.00 | 33 | 1015.6 |
| 20260503040543 | 68 | 6 | 1.0 | 6.0 | 0.00 | 0.00 | 0.00 | 34 | 1015.3 |
| 20260503040043 | 67 | 9 | 2.0 | 6.0 | 0.00 | 0.00 | 0.00 | 34 | 1015.3 |
| 20260503035542 | 67 | 2 | 1.0 | 7.0 | 0.00 | 0.00 | 0.00 | 35 | 1015.3 |
| 20260503035043 | 68 | 46 | 1.0 | 7.0 | 0.00 | 0.00 | 0.00 | 35 | 1015.3 |
| 20260503034542 | 68 | 43 | 2.0 | 5.0 | 0.00 | 0.00 | 0.00 | 36 | 1015.3 |
| 20260503034043 | 67 | 64 | 1.0 | 3.0 | 0.00 | 0.00 | 0.00 | 37 | 1015.2 |
| 20260503033543 | 67 | 308 | 2.0 | 3.0 | 0.00 | 0.00 | 0.00 | 38 | 1015.1 |
| 20260503033042 | 67 | 346 | 2.0 | 3.0 | 0.00 | 0.00 | 0.00 | 38 | 1015.0 |
| 20260503032542 | 67 | 337 | 2.0 | 3.0 | 0.00 | 0.00 | 0.00 | 38 | 1014.9 |
| 20260503032043 | 68 | 345 | 2.0 | 3.0 | 0.00 | 0.00 | 0.00 | 38 | 1014.9 |
| 20260503031542 | 68 | 323 | 1.0 | 3.0 | 0.00 | 0.00 | 0.00 | 39 | 1014.8 |
| 20260503031042 | 68 | 5 | 2.0 | 3.0 | 0.00 | 0.00 | 0.00 | 38 | 1014.7 |
| 20260503030543 | 68 | 358 | 2.0 | 3.0 | 0.00 | 0.00 | 0.00 | 38 | 1014.6 |
| 20260503030042 | 68 | 353 | 2.0 | 3.0 | 0.00 | 0.00 | 0.00 | 37 | 1014.6 |
| 20260503025543 | 68 | 352 | 1.0 | 2.0 | 0.00 | 0.00 | 0.00 | 37 | 1014.6 |
| 20260503025043 | 69 | 354 | 1.0 | 2.0 | 0.00 | 0.00 | 0.00 | 36 | 1014.5 |
| 20260503024542 | 69 | 355 | 1.0 | 3.0 | 0.00 | 0.00 | 0.00 | 36 | 1014.5 |
| 20260503024103 | 69 | 352 | 2.0 | 3.0 | 0.00 | 0.00 | 0.00 | 36 | 1014.5 |
| 20260503023603 | 69 | 351 | 2.0 | 2.0 | 0.00 | 0.00 | 0.00 | 36 | 1014.4 |
| 20260503023042 | 70 | 355 | 2.0 | 2.0 | 0.00 | 0.00 | 0.00 | 35 | 1014.5 |
| 20260503022603 | 70 | 355 | 2.0 | 2.0 | 0.00 | 0.00 | 0.00 | 35 | 1014.4 |
| 20260503022042 | 70 | 340 | 1.0 | 2.0 | 0.00 | 0.00 | 0.00 | 35 | 1014.3 |
| 20260503021543 | 70 | 349 | 2.0 | 3.0 | 0.00 | 0.00 | 0.00 | 35 | 1014.1 |
| 20260503021043 | 70 | 354 | 2.0 | 3.0 | 0.00 | 0.00 | 0.00 | 34 | 1014.3 |
| 20260503020543 | 71 | 355 | 1.0 | 2.0 | 0.00 | 0.00 | 0.00 | 34 | 1014.3 |
| 20260503020043 | 71 | 233 | 1.0 | 2.0 | 0.00 | 0.00 | 0.00 | 34 | 1014.5 |
| 20260503015543 | 71 | 0 | 1.0 | 3.0 | 0.00 | 0.00 | 0.00 | 33 | 1014.4 |
| 20260503015043 | 72 | 308 | 1.0 | 3.0 | 0.00 | 0.00 | 0.00 | 33 | 1014.4 |
| 20260503014543 | 71 | 283 | 1.0 | 3.0 | 0.00 | 0.00 | 0.00 | 33 | 1014.4 |
| 20260503014042 | 72 | 203 | 1.0 | 3.0 | 0.00 | 0.00 | 0.00 | 33 | 1014.5 |
| 20260503013543 | 72 | 169 | 1.0 | 4.0 | 0.00 | 0.00 | 0.00 | 33 | 1014.5 |
| 20260503013043 | 72 | 268 | 2.0 | 4.0 | 0.00 | 0.00 | 0.00 | 32 | 1014.6 |
| 20260503012543 | 72 | 267 | 2.0 | 4.0 | 0.00 | 0.00 | 0.00 | 33 | 1014.7 |
| 20260503012044 | 72 | 248 | 2.0 | 5.0 | 0.00 | 0.00 | 0.00 | 33 | 1014.7 |
| 20260503011543 | 72 | 231 | 3.0 | 5.0 | 0.00 | 0.00 | 0.00 | 33 | 1014.6 |
| 20260503011043 | 72 | 236 | 3.0 | 5.0 | 0.00 | 0.00 | 0.00 | 33 | 1014.6 |
| 20260503010543 | 72 | 245 | 2.0 | 6.0 | 0.00 | 0.00 | 0.00 | 34 | 1014.6 |
| 20260503010043 | 72 | 237 | 3.0 | 6.0 | 0.00 | 0.00 | 0.00 | 34 | 1014.6 |
| 20260503005542 | 72 | 225 | 3.0 | 6.0 | 0.00 | 0.00 | 0.00 | 34 | 1014.6 |
| 20260503005042 | 72 | 276 | 4.0 | 7.0 | 0.00 | 0.00 | 0.00 | 34 | 1014.6 |
| 20260503004543 | 72 | 245 | 3.0 | 7.0 | 0.00 | 0.00 | 0.00 | 33 | 1014.7 |
| 20260503004043 | 72 | 234 | 3.0 | 7.0 | 0.00 | 0.00 | 0.00 | 33 | 1014.8 |
| 20260503003604 | 72 | 231 | 3.0 | 7.0 | 0.00 | 0.00 | 0.00 | 33 | 1014.8 |
| 20260503003043 | 72 | 254 | 3.0 | 7.0 | 0.00 | 0.00 | 0.00 | 33 | 1014.7 |
| 20260503002543 | 72 | 234 | 3.0 | 7.0 | 0.00 | 0.00 | 0.00 | 33 | 1014.9 |
| 20260503002043 | 73 | 242 | 4.0 | 6.0 | 0.00 | 0.00 | 0.00 | 33 | 1014.8 |
| 20260503001604 | 73 | 245 | 3.0 | 9.0 | 0.00 | 0.00 | 0.00 | 33 | 1014.8 |
| 20260503001103 | 72 | 246 | 4.0 | 9.0 | 0.00 | 0.00 | 0.00 | 33 | 1014.9 |
| 20260503000543 | 73 | 232 | 4.0 | 8.0 | 0.00 | 0.00 | 0.00 | 33 | 1014.8 |
| 20260503000043 | 73 | 255 | 4.0 | 8.0 | 0.00 | 0.00 | 0.00 | 32 | 1014.9 |
| 20260502235543 | 72 | 218 | 3.0 | 7.0 | 0.00 | 0.00 | 0.00 | 33 | 1015.0 |
| 20260502235103 | 72 | 226 | 4.0 | 9.0 | 0.00 | 0.00 | 0.00 | 33 | 1015.2 |
| 20260502234542 | 72 | 234 | 4.0 | 9.0 | 0.00 | 0.00 | 0.00 | 33 | 1015.1 |
| 20260502234043 | 72 | 242 | 3.0 | 7.0 | 0.00 | 0.00 | 0.00 | 34 | 1015.1 |
| 20260502233542 | 72 | 228 | 3.0 | 7.0 | 0.00 | 0.00 | 0.00 | 34 | 1015.1 |
| 20260502233043 | 72 | 241 | 4.0 | 10.0 | 0.00 | 0.00 | 0.00 | 34 | 1015.2 |
| 20260502232543 | 72 | 237 | 4.0 | 11.0 | 0.00 | 0.00 | 0.00 | 34 | 1015.1 |
| 20260502232043 | 71 | 242 | 6.0 | 11.0 | 0.00 | 0.00 | 0.00 | 34 | 1015.4 |
| 20260502231543 | 71 | 254 | 5.0 | 11.0 | 0.00 | 0.00 | 0.00 | 35 | 1015.3 |
| 20260502231043 | 71 | 246 | 5.0 | 11.0 | 0.00 | 0.00 | 0.00 | 35 | 1015.4 |
| 20260502230543 | 71 | 240 | 4.0 | 9.0 | 0.00 | 0.00 | 0.00 | 35 | 1015.4 |
| 20260502230043 | 71 | 251 | 5.0 | 9.0 | 0.00 | 0.00 | 0.00 | 35 | 1015.4 |
| 20260502225542 | 71 | 249 | 4.0 | 10.0 | 0.00 | 0.00 | 0.00 | 35 | 1015.5 |
| 20260502225043 | 71 | 233 | 4.0 | 10.0 | 0.00 | 0.00 | 0.00 | 36 | 1015.5 |
| 20260502224543 | 71 | 252 | 4.0 | 11.0 | 0.00 | 0.00 | 0.00 | 36 | 1015.7 |
| 20260502224042 | 71 | 233 | 5.0 | 11.0 | 0.00 | 0.00 | 0.00 | 36 | 1015.8 |
| 20260502223543 | 71 | 244 | 5.0 | 9.0 | 0.00 | 0.00 | 0.00 | 36 | 1015.9 |
| 20260502223043 | 71 | 245 | 4.0 | 9.0 | 0.00 | 0.00 | 0.00 | 36 | 1016.0 |
| 20260502222603 | 71 | 248 | 4.0 | 10.0 | 0.00 | 0.00 | 0.00 | 36 | 1015.8 |
| 20260502222042 | 71 | 239 | 5.0 | 10.0 | 0.00 | 0.00 | 0.00 | 36 | 1016.1 |
| 20260502221543 | 71 | 239 | 4.0 | 8.0 | 0.00 | 0.00 | 0.00 | 36 | 1016.0 |
| 20260502221042 | 71 | 225 | 4.0 | 12.0 | 0.00 | 0.00 | 0.00 | 36 | 1015.9 |
| 20260502220543 | 71 | 267 | 4.0 | 12.0 | 0.00 | 0.00 | 0.00 | 35 | 1016.2 |
| 20260502215543 | 70 | 238 | 4.0 | 10.0 | 0.00 | 0.00 | 0.00 | 35 | 1016.0 |
| 20260502215043 | 70 | 255 | 4.0 | 10.0 | 0.00 | 0.00 | 0.00 | 35 | 1016.3 |
| 20260502214542 | 70 | 234 | 5.0 | 10.0 | 0.00 | 0.00 | 0.00 | 34 | 1016.4 |
| 20260502214043 | 70 | 236 | 6.0 | 10.0 | 0.00 | 0.00 | 0.00 | 34 | 1016.5 |
| 20260502213543 | 70 | 224 | 4.0 | 9.0 | 0.00 | 0.00 | 0.00 | 34 | 1016.5 |
| 20260502213043 | 71 | 235 | 5.0 | 9.0 | 0.00 | 0.00 | 0.00 | 34 | 1016.5 |
| 20260502212542 | 71 | 215 | 4.0 | 8.0 | 0.00 | 0.00 | 0.00 | 34 | 1016.6 |
| 20260502212043 | 71 | 236 | 4.0 | 8.0 | 0.00 | 0.00 | 0.00 | 33 | 1016.7 |
| 20260502211542 | 71 | 235 | 3.0 | 7.0 | 0.00 | 0.00 | 0.00 | 33 | 1016.5 |
| 20260502211043 | 71 | 241 | 5.0 | 7.0 | 0.00 | 0.00 | 0.00 | 33 | 1016.4 |
| 20260502210542 | 71 | 229 | 4.0 | 7.0 | 0.00 | 0.00 | 0.00 | 33 | 1016.6 |
| 20260502210043 | 71 | 224 | 4.0 | 8.0 | 0.00 | 0.00 | 0.00 | 33 | 1016.6 |
| 20260502205543 | 71 | 228 | 3.0 | 8.0 | 0.00 | 0.00 | 0.00 | 32 | 1016.5 |
| 20260502205043 | 71 | 212 | 3.0 | 6.0 | 0.00 | 0.00 | 0.00 | 32 | 1016.5 |
| 20260502204542 | 72 | 214 | 3.0 | 6.0 | 0.00 | 0.00 | 0.00 | 32 | 1016.7 |
| 20260502204043 | 72 | 240 | 3.0 | 6.0 | 0.00 | 0.00 | 0.00 | 31 | 1016.5 |
| 20260502203543 | 73 | 224 | 3.0 | 7.0 | 0.00 | 0.00 | 0.00 | 31 | 1016.6 |
| 20260502203043 | 74 | 229 | 3.0 | 7.0 | 0.00 | 0.00 | 0.00 | 30 | 1016.8 |
| 20260502202543 | 75 | 228 | 4.0 | 7.0 | 0.00 | 0.00 | 0.00 | 30 | 1016.6 |
| 20260502202043 | 76 | 227 | 4.0 | 7.0 | 0.00 | 0.00 | 0.00 | 29 | 1016.7 |
| 20260502201543 | 76 | 236 | 4.0 | 6.0 | 0.00 | 0.00 | 0.00 | 27 | 1016.7 |
| 20260502201043 | 76 | 232 | 3.0 | 7.0 | 0.00 | 0.00 | 0.00 | 27 | 1016.9 |
| 20260502200543 | 76 | 235 | 4.0 | 7.0 | 0.00 | 0.00 | 0.00 | 27 | 1017.0 |
| 20260502195542 | 77 | 141 | 2.0 | 7.0 | 0.00 | 0.00 | 0.00 | 26 | 1016.8 |
| 20260502195043 | 77 | 97 | 3.0 | 10.0 | 0.00 | 0.00 | 0.00 | 22 | 1017.1 |
| 20260502194603 | 76 | 240 | 5.0 | 10.0 | 0.00 | 0.00 | 0.00 | 26 | 1017.1 |
| 20260502194043 | 75 | 212 | 3.0 | 11.0 | 0.00 | 0.00 | 0.00 | 28 | 1017.3 |
| 20260502193543 | 75 | 92 | 2.0 | 11.0 | 0.00 | 0.00 | 0.00 | 27 | 1017.2 |
| 20260502193042 | 75 | 136 | 3.0 | 8.0 | 0.00 | 0.00 | 0.00 | 28 | 1017.4 |
| 20260502192542 | 75 | 147 | 2.0 | 7.0 | 0.00 | 0.00 | 0.00 | 29 | 1017.6 |
| 20260502192043 | 75 | 131 | 4.0 | 7.0 | 0.00 | 0.00 | 0.00 | 26 | 1017.5 |
| 20260502191542 | 74 | 228 | 2.0 | 6.0 | 0.00 | 0.00 | 0.00 | 29 | 1017.5 |
| 20260502191043 | 74 | 86 | 3.0 | 6.0 | 0.00 | 0.00 | 0.00 | 30 | 1017.4 |
| 20260502190542 | 74 | 49 | 2.0 | 5.0 | 0.00 | 0.00 | 0.00 | 31 | 1017.4 |
| 20260502190043 | 74 | 107 | 3.0 | 5.0 | 0.00 | 0.00 | 0.00 | 30 | 1017.7 |
| 20260502185542 | 74 | 78 | 3.0 | 5.0 | 0.00 | 0.00 | 0.00 | 27 | 1017.7 |
| 20260502185043 | 74 | 108 | 2.0 | 5.0 | 0.00 | 0.00 | 0.00 | 32 | 1017.5 |
| 20260502184543 | 73 | 161 | 1.0 | 6.0 | 0.00 | 0.00 | 0.00 | 34 | 1017.6 |
| 20260502184104 | 72 | 55 | 1.0 | 6.0 | 0.00 | 0.00 | 0.00 | 35 | 1017.6 |
| 20260502183543 | 72 | 127 | 2.0 | 6.0 | 0.00 | 0.00 | 0.00 | 35 | 1017.9 |
| 20260502183042 | 72 | 173 | 2.0 | 6.0 | 0.00 | 0.00 | 0.00 | 35 | 1017.8 |
| 20260502182542 | 72 | 163 | 2.0 | 6.0 | 0.00 | 0.00 | 0.00 | 36 | 1017.9 |
| 20260502182043 | 72 | 111 | 2.0 | 5.0 | 0.00 | 0.00 | 0.00 | 36 | 1018.0 |
| 20260502181543 | 72 | 108 | 3.0 | 4.0 | 0.00 | 0.00 | 0.00 | 36 | 1017.8 |
| 20260502181043 | 71 | 143 | 1.0 | 4.0 | 0.00 | 0.00 | 0.00 | 38 | 1018.0 |
| 20260502180543 | 71 | 111 | 2.0 | 4.0 | 0.00 | 0.00 | 0.00 | 37 | 1018.0 |